一网星座-0156星 (ONEWEB-0156 )

导读

ONEWEB-0156是英国OneWeb低轨宽带星座的卫星,于2021年3月25日发射入轨,归属于OneWeb卫星星座系统。OneWeb星座旨在为全球尤其是高纬度地区提供高速低延迟通信服务,后期还拓展了军事通信应用,可为武装部队提供通信支持与信息传输,推动了全球卫星互联网覆盖进程,助力星地一体化通信网络发展。

Basic Information
目录编号:
48052
目录名称:
ONEWEB-0156
国际标识:
2021-025L
轨道中心:
EARTH
卫星名称:
一网星座-0156星
卫星全名:
一网星座-0156星 (ONEWEB-0156 )
卫星状态:
在轨 (已飞行1907 天)
发射日期:
2021-03-25 UTC
国别 :
英国 (GB)
星等 :
--
Orbit Information
数据来源 国际轨道数据 AOE轨道数据
星历时间 2026-06-14T06:02:55+0800
13小时前
查看轨道信息
2026-06-08T07:00:00+0800
6天前
查看轨道信息
半长轴 7587.904km 7587.917km
偏心率 0.0001938 0.000176
轨道倾角 87.896° 87.895°
近地点辐角 98.076° 98.447°
升交点赤经 320.869° 322.056°
平近点角 262.059° 174.172°
近地点 1208.296km 1208.444km
远地点 1211.238km 1211.116km
周期 109.633分钟 109.634分钟
每日圈数 13.134698 13.134663
Detailed Information
平衡模式:
三轴稳定
覆盖范围:
全球
运营商:
一网卫星公司
运营商所在国:
英国
制造商(研发单位):
一网卫星公司
制造商所在国:
英国
使用方式:
暂无
Satellite Introduction
OneWeb卫星网络由648颗重约125公斤的微型卫星组成,运行在1200公里的轨道上。 每颗卫星都能够提供至少每秒8千兆位的吞吐量,以使用其高吞吐量的Ku频段有效载荷为家庭和移动平台提供互联网接入。该卫星仍在工作。
2D Orbit Map
3D Orbit Map
Orbit Altitude Analysis Chart
Orbit Inclination Analysis Chart
Orbit Comprehensive Analysis Chart
View Comprehensive Chart